CALSPHERE 1 1 00900U 64063C 26171.46002000 .00000476 00000+0 47588-3 0 9998 2 00900 90.2232 71.8482 0023642 286.6231 247.9261 13.76626653 71873 CALSPHERE 2 1 00902U 64063E 26170.76803056 .00000045 00000+0 54945-4 0 9990 2 00902 90.2371 75.8574 0017265 215.0527 207.8861 13.52900356856616 LCS 1 1 01361U 65034C 26171.40304773 -.00000001 00000+0 -12317-2 0 9992 2 01361 32.1350 169.3881 0012279 134.1866 225.9642 9.89310775210207 TEMPSAT 1 1 01512U 65065E 26171.35297347 .00000018 00000+0 19895-4 0 9992 2 01512 89.9987 212.5944 0067960 238.9085 132.3854 13.33594257960475 CALSPHERE 4A 1 01520U 65065H 26171.38207601 .00000116 00000+0 20269-3 0 9993 2 01520 89.8983 122.4562 0072078 94.1500 27.7063 13.36278934963133 OPS 5712 (P/L 160) 1 02826U 67053A 26171.43301466 .00005615 00000+0 79167-3 0 9992 2 02826 69.9172 30.3399 0000815 286.9963 73.1095 14.77752102 66719 OPS 5712 (P/L 153) 1 02874U 67053H 26171.27414411 .00000017 00000+0 50261-4 0 9998 2 02874 69.9736 108.6900 0008356 210.3356 149.7267 13.96828733 7226 RIGIDSPHERE 2 (LCS 4) 1 05398U 71067E 26171.46268079 .00000523 00000+0 16444-3 0 9996 2 05398 87.6215 337.8991 0058394 220.2901 139.3965 14.37870449874351 COSMOS 2493 (SKRL-756 1) 1 39490U 13078A 26171.48238532 .00001756 00000+0 13127-3 0 9991 2 39490 82.4125 257.9633 0012003 227.2802 132.7413 15.02175226678455 COSMOS 2494 (SKRL-756 2) 1 39491U 13078B 26171.47446191 .00002546 00000+0 17769-3 0 9997 2 39491 82.4109 247.3462 0015872 187.3943 172.7052 15.04878441679309